Location: Grange Rosano
(44.4500°N, 6.9667°E)
Time: 08:44:58
(UTC+00:00)

Cosmos 1328 - Pass Details

Date: 26 May 2022
Orbit: 524 x 551 km, 82.5° (Epoch: 01 July)

Event Time Altitude Azimuth Distance (km) Brightness Sun altitude
Exits shadow 02:53:28 10° 201° (SSW) 1,774 5.9 -9.6°
Maximum altitude 02:57:18 58° 281° (W) 635 3.9 -9.1°
Drops below altitude 10° 03:01:15 10° 1° (N) 1,819 7.1 -8.5°
Sets 03:03:28 0° 5° (N) 2,721 8.1 -8.2°
